Glendale Luke AFB, AZ

6:18 AM MST on December 15, 2019 (GMT -0700)
Luke Air Force Base

Weather History for KLUF - August, 2019

Change the Weather History Date:

Wednesday, August 7, 2019

  Actual Average Record
Temperature  
Mean Temperature 96 °F -  
Max Temperature 105 °F 107 °F 114 °F (1970)
Min Temperature 87 °F 76 °F 63 °F (1928)
Cooling Degree Days 31    
Growing Degree Days 46 (Base 50)    
Moisture  
Dew Point 62 °F    
Average Humidity 33    
Maximum Humidity 49    
Minimum Humidity 20    
Precipitation  
Precipitation 0.00 in - - ()
Sea Level Pressure  
Sea Level Pressure 29.79 in    
Wind  
Wind Speed 8 mph (WNW)    
Max Wind Speed 28 mph    
Max Gust Speed 36 mph    
Visibility 10 miles    
Events Rain    
Averages and records for this station are not official NWS values.
T = Trace of Precipitation, MM = Missing Value Source: NWS Daily Summary

Daily Weather History Graph

Daily Weather History Graph

Search for Another Location

Airport or City:

Astronomy

Aug. 07, 2019 Rise Set
Actual Time 5:46 AM MST 7:24 PM MST
Civil Twilight 5:19 AM MST 7:50 PM MST
Nautical Twilight 4:47 AM MST 8:22 PM MST
Astronomical Twilight 4:13 AM MST 8:56 PM MST
Moon 1:00 PM MST (8/7) No Moon Set
Length of Visible Light 14h 31m
Length of Day
13h 38m
Waxing Crescent, 51% of the Moon is Illuminated
Aug 7
Waxing Crescent
Aug 15
Full
Aug 23
Last Quarter
Aug 30
New
Sep 5
First Quarter

Hourly Weather History & Observations

Time (MST) Temp. Heat Index Dew Point Humidity Pressure Visibility Wind Dir Wind Speed Gust Speed Precip Events Conditions
12:18 AM 95.0 °F 95.2 °F 60.8 °F 32% 29.81 in 10.0 mi Calm Calm - N/A   Overcast
12:28 AM 93.2 °F 94.9 °F 64.4 °F 38% 29.81 in 10.0 mi West 4.6 mph - N/A   Overcast
12:38 AM 93.2 °F 94.1 °F 62.6 °F 36% 29.80 in 10.0 mi West 4.6 mph - N/A   Mostly Cloudy
12:58 AM 93.6 °F 93.8 °F 61.0 °F 34% 29.80 in 10.0 mi WSW 6.9 mph - N/A   Overcast
1:58 AM 91.9 °F 93.3 °F 64.0 °F 39% 29.80 in 10.0 mi WSW 9.2 mph - N/A   Clear
2:58 AM 91.4 °F 93.6 °F 65.7 °F 42% 29.81 in 10.0 mi SSE 9.2 mph - N/A   Clear
3:58 AM 88.3 °F 90.5 °F 66.0 °F 47% 29.82 in 10.0 mi South 5.8 mph - N/A   Partly Cloudy
4:58 AM 88.0 °F 90.3 °F 65.8 °F 48% 29.82 in 10.0 mi SSE 4.6 mph - N/A   Clear
5:58 AM 87.3 °F 89.5 °F 66.2 °F 49% 29.83 in 10.0 mi South 4.6 mph - N/A   Clear
6:58 AM 88.7 °F 91.1 °F 65.8 °F 47% 29.85 in 10.0 mi SW 4.6 mph - N/A   Clear
7:58 AM 89.1 °F 91.0 °F 65.5 °F 45% 29.86 in 10.0 mi Calm Calm - N/A   Clear
9:58 AM 94.3 °F 95.8 °F 63.9 °F 36% 29.86 in 10.0 mi SSW 4.6 mph - N/A   Partly Cloudy
10:58 AM 96.3 °F 98.1 °F 63.3 °F 34% 29.85 in 10.0 mi South 5.8 mph - N/A   Partly Cloudy
11:58 AM 97.9 °F 99.8 °F 63.0 °F 32% 29.82 in 10.0 mi NE 5.8 mph - N/A   Partly Cloudy
12:58 PM 100.6 °F 102.1 °F 62.4 °F 28% 29.81 in 10.0 mi WSW 4.6 mph - N/A   Scattered Clouds
1:58 PM 102.0 °F 103.9 °F 61.7 °F 27% 29.77 in 10.0 mi WSW 11.5 mph - N/A   Partly Cloudy
2:58 PM 104.9 °F 106.1 °F 59.5 °F 23% 29.75 in 10.0 mi SW 11.5 mph 19.6 mph N/A   Clear
3:58 PM 105.6 °F 105.9 °F 57.6 °F 21% 29.73 in 10.0 mi WSW 12.7 mph 21.9 mph N/A   Clear
4:02 PM 105.4 °F 105.0 °F 56.1 °F 20% 29.73 in 3.0 mi West 15.0 mph 21.9 mph N/A   Scattered Clouds
4:05 PM 105.8 °F 105.5 °F 57.2 °F 20% 29.73 in 9.0 mi West 24.2 mph 31.1 mph N/A   Partly Cloudy
4:25 PM 102.2 °F 104.2 °F 62.6 °F 27% 29.75 in 7.0 mi NW 26.5 mph 34.5 mph N/A   Mostly Cloudy
4:35 PM 100.4 °F 101.3 °F 60.8 °F 27% 29.75 in 9.0 mi WNW 25.3 mph 34.5 mph N/A   Mostly Cloudy
4:45 PM 98.6 °F 99.4 °F 60.8 °F 29% 29.75 in 10.0 mi NW 25.3 mph 35.7 mph N/A   Scattered Clouds
4:58 PM 97.7 °F 97.6 °F 59.0 °F 28% 29.75 in 10.0 mi NNW 27.6 mph 33.4 mph N/A   Scattered Clouds
5:49 PM 96.8 °F 96.2 °F 59.0 °F 28% 29.76 in 10.0 mi NNW 21.9 mph 26.5 mph N/A   Partly Cloudy
5:50 PM 96.8 °F 96.2 °F 59.0 °F 28% 29.76 in 10.0 mi NNW 19.6 mph 26.5 mph N/A   Light Drizzle
5:58 PM 96.1 °F 96.0 °F 60.4 °F 30% 29.75 in 10.0 mi NW 19.6 mph 26.5 mph 0.00 in Rain Light Rain
6:11 PM 96.8 °F 96.2 °F 59.0 °F 28% 29.75 in 10.0 mi NNW 16.1 mph 23.0 mph N/A   Scattered Clouds
6:27 PM 98.6 °F 98.5 °F 59.0 °F 27% 29.74 in 10.0 mi NNW 12.7 mph - N/A   Partly Cloudy
6:58 PM 97.5 °F 96.5 °F 56.8 °F 26% 29.74 in 10.0 mi NNW 12.7 mph - 0.00 in   Partly Cloudy
7:58 PM 95.0 °F 95.2 °F 60.4 °F 32% 29.75 in 10.0 mi ENE 8.1 mph - N/A   Mostly Cloudy
8:58 PM 92.8 °F 93.1 °F 61.2 °F 35% 29.78 in 10.0 mi NNW 6.9 mph - N/A   Mostly Cloudy
9:58 PM 92.5 °F 91.9 °F 59.2 °F 33% 29.80 in 10.0 mi NNW 8.1 mph - N/A   Mostly Cloudy
10:58 PM 89.8 °F 90.4 °F 62.2 °F 40% 29.79 in 10.0 mi North 5.8 mph - N/A   Clear
11:58 PM 88.0 °F 88.1 °F 61.9 °F 41% 29.80 in 10.0 mi North 4.6 mph - N/A   Clear